QPF
0.00 0.00 0.00 0.01 0.02 0.02 0.03 0.03 0.03 0.02 0.02 0.02 0.03 0.03 0.03 0.03 0.04 0.05 0.07 0.06 0.04 0.04 0.05 0.05 0.05 0.06 0.09 0.06 0.06 0.03 0.03 0.03 0.03 0.03 0.02 0.02 0.02 0.01 0.00 0.00 0.00 0.01 0.02
0.00 0.00 0.00 0.01 0.01 0.01 0.02 0.03 0.03 0.03 0.02 0.02 0.03 0.03 0.03 0.03 0.05 0.05 0.06 0.06 0.04 0.05 0.05 0.07 0.06 0.05 0.07 0.06 0.06 0.03 0.03 0.02 0.02 0.02 0.02 0.02 0.01 0.01 0.00 0.00 0.01 0.01 0.03
0.00 0.00 0.00 0.00 0.01 0.01 0.02 0.02 0.02 0.03 0.03 0.02 0.03 0.03 0.03 0.03 0.04 0.05 0.07 0.06 0.05 0.05 0.05 0.06 0.06 0.05 0.07 0.06 0.05 0.03 0.02 0.03 0.02 0.01 0.01 0.01 0.00 0.01 0.01 0.00 0.01 0.01 0.02
0.00 0.00 0.00 0.00 0.00 0.01 0.01 0.01 0.02 0.02 0.03 0.03 0.03 0.04 0.05 0.04 0.03 0.04 0.07 0.08 0.05 0.05 0.06 0.05 0.06 0.06 0.08 0.07 0.05 0.03 0.03 0.03 0.03 0.02 0.01 0.00 0.00 0.01 0.01 0.01 0.01 0.02 0.02
0.00 0.00 0.00 0.00 0.00 0.00 0.01 0.01 0.02 0.02 0.02 0.03 0.03 0.04 0.05 0.05 0.05 0.04 0.05 0.06 0.05 0.05 0.05 0.05 0.05 0.05 0.06 0.06 0.05 0.04 0.04 0.03 0.03 0.02 0.01 0.00 0.01 0.01 0.02 0.02 0.02 0.03 0.03
0.00 0.00 0.00 0.00 0.00 0.00 0.01 0.01 0.01 0.01 0.01 0.02 0.03 0.04 0.05 0.06 0.07 0.07 0.04 0.06 0.05 0.06 0.05 0.05 0.04 0.04 0.04 0.05 0.06 0.04 0.04 0.04 0.03 0.01 0.01 0.01 0.01 0.02 0.02 0.02 0.03 0.03 0.04
0.00 0.00 0.00 0.00 0.00 0.00 0.00 0.01 0.01 0.01 0.01 0.01 0.02 0.03 0.04 0.06 0.07 0.08 0.09 0.07 0.07 0.06 0.06 0.05 0.05 0.04 0.04 0.04 0.05 0.05 0.05 0.04 0.02 0.01 0.01 0.00 0.01 0.02 0.02 0.03 0.04 0.04 0.05
0.00 0.00 0.00 0.01 0.00 0.00 0.00 0.00 0.00 0.01 0.01 0.01 0.01 0.01 0.03 0.04 0.06 0.08 0.09 0.09 0.07 0.07 0.06 0.05 0.05 0.06 0.05 0.04 0.05 0.04 0.04 0.03 0.02 0.01 0.01 0.01 0.01 0.02 0.03 0.03 0.04 0.05 0.06
0.00 0.00 0.01 0.01 0.01 0.00 0.00 0.00 0.00 0.00 0.00 0.00 0.00 0.01 0.01 0.03 0.05 0.06 0.08 0.07 0.07 0.06 0.06 0.05 0.05 0.05 0.05 0.04 0.04 0.05 0.04 0.02 0.02 0.02 0.01 0.01 0.01 0.02 0.03 0.03 0.04 0.06 0.07
0.00 0.01 0.02 0.02 0.02 0.01 0.00 0.00 0.00 0.00 0.00 0.00 0.00 0.00 0.01 0.02 0.03 0.05 0.07 0.08 0.07 0.06 0.05 0.04 0.04 0.04 0.04 0.04 0.03 0.04 0.04 0.03 0.01 0.01 0.01 0.01 0.01 0.02 0.03 0.04 0.05 0.05 0.07
0.00 0.00 0.01 0.02 0.02 0.02 0.01 0.00 0.00 0.00 0.00 0.00 0.00 0.00 0.00 0.01 0.02 0.04 0.05 0.07 0.08 0.07 0.05 0.04 0.04 0.03 0.03 0.04 0.05 0.04 0.04 0.02 0.01 0.01 0.01 0.01 0.02 0.03 0.04 0.05 0.05 0.05 0.06
0.00 0.00 0.01 0.02 0.02 0.02 0.02 0.01 0.00 0.00 0.00 0.00 0.00 0.00 0.00 0.00 0.01 0.03 0.04 0.06 0.08 0.10 0.08 0.06 0.04 0.03 0.03 0.03 0.04 0.04 0.02 0.02 0.03 0.02 0.01 0.01 0.02 0.04 0.05 0.06 0.06 0.05 0.05
0.00 0.01 0.01 0.01 0.02 0.02 0.03 0.02 0.01 0.00 0.00 0.00 0.00 0.00 0.00 0.00 0.01 0.03 0.05 0.07 0.09 0.10 0.10 0.07 0.06 0.04 0.04 0.03 0.03 0.02 0.01 0.01 0.02 0.02 0.01 0.02 0.02 0.04 0.06 0.06 0.06 0.05 0.05
0.00 0.00 0.01 0.01 0.01 0.02 0.03 0.03 0.02 0.00 0.00 0.00 0.00 0.00 0.00 0.00 0.01 0.02 0.03 0.05 0.08 0.08 0.07 0.05 0.05 0.03 0.03 0.03 0.03 0.03 0.02 0.01 0.01 0.01 0.01 0.02 0.02 0.04 0.06 0.08 0.07 0.07 0.07
0.00 0.00 0.00 0.01 0.01 0.02 0.03 0.03 0.03 0.01 0.00 0.00 0.00 0.00 0.00 0.00 0.01 0.02 0.03 0.03 0.05 0.08 0.10 0.08 0.06 0.05 0.04 0.03 0.03 0.03 0.03 0.02 0.02 0.01 0.01 0.01 0.02 0.03 0.05 0.09 0.09 0.10 0.10
0.00 0.00 0.00 0.00 0.01 0.02 0.03 0.03 0.03 0.01 0.00 0.00 0.00 0.00 0.00 0.00 0.00 0.02 0.03 0.03 0.04 0.05 0.08 0.11 0.11 0.09 0.07 0.05 0.04 0.04 0.03 0.03 0.02 0.02 0.02 0.02 0.02 0.02 0.04 0.07 0.09 0.11 0.12
0.00 0.00 0.00 0.00 0.00 0.01 0.02 0.03 0.04 0.02 0.01 0.00 0.00 0.00 0.00 0.00 0.00 0.01 0.03 0.04 0.04 0.05 0.05 0.07 0.08 0.07 0.07 0.06 0.05 0.04 0.04 0.03 0.03 0.02 0.02 0.02 0.02 0.02 0.03 0.05 0.07 0.10 0.11
0.00 0.00 0.00 0.00 0.00 0.00 0.01 0.02 0.03 0.03 0.02 0.01 0.00 0.00 0.00 0.00 0.00 0.01 0.02 0.03 0.04 0.05 0.06 0.06 0.06 0.05 0.04 0.05 0.06 0.05 0.04 0.03 0.03 0.03 0.02 0.02 0.02 0.02 0.02 0.03 0.04 0.07 0.10
0.00 0.00 0.00 0.00 0.00 0.00 0.00 0.01 0.02 0.03 0.03 0.02 0.01 0.00 0.00 0.00 0.00 0.01 0.02 0.03 0.05 0.05 0.06 0.07 0.07 0.06 0.05 0.04 0.04 0.05 0.06 0.05 0.04 0.04 0.03 0.03 0.02 0.02 0.02 0.03 0.03 0.04 0.07
0.00 0.00 0.00 0.00 0.00 0.00 0.00 0.00 0.01 0.03 0.03 0.03 0.02 0.01 0.00 0.00 0.00 0.01 0.02 0.03 0.05 0.06 0.07 0.07 0.07 0.07 0.07 0.06 0.06 0.05 0.05 0.06 0.06 0.06 0.05 0.04 0.04 0.03 0.03 0.03 0.03 0.04 0.06
0.00 0.00 0.00 0.00 0.00 0.00 0.00 0.00 0.01 0.02 0.05 0.05 0.03 0.02 0.01 0.00 0.01 0.01 0.02 0.04 0.05 0.06 0.07 0.07 0.06 0.07 0.07 0.07 0.07 0.08 0.06 0.05 0.04 0.05 0.07 0.07 0.06 0.05 0.04 0.04 0.05 0.05 0.05
0.01 0.00 0.00 0.00 0.00 0.00 0.00 0.00 0.01 0.02 0.05 0.07 0.05 0.04 0.02 0.01 0.02 0.02 0.03 0.04 0.04 0.06 0.08 0.09 0.08 0.07 0.07 0.07 0.07 0.07 0.08 0.10 0.07 0.05 0.06 0.07 0.08 0.07 0.07 0.06 0.06 0.06 0.06
0.01 0.01 0.00 0.00 0.00 0.00 0.00 0.01 0.02 0.02 0.04 0.08 0.08 0.07 0.05 0.03 0.03 0.03 0.04 0.05 0.05 0.05 0.08 0.09 0.10 0.08 0.07 0.07 0.06 0.06 0.06 0.07 0.09 0.09 0.07 0.06 0.07 0.09 0.09 0.08 0.07 0.07 0.07
0.00 0.00 0.00 0.00 0.00 0.00 0.00 0.01 0.02 0.02 0.04 0.07 0.08 0.09 0.07 0.05 0.04 0.04 0.04 0.04 0.06 0.07 0.07 0.09 0.11 0.12 0.10 0.09 0.09 0.08 0.05 0.04 0.06 0.09 0.10 0.09 0.08 0.08 0.09 0.10 0.09 0.08 0.08
0.00 0.00 0.00 0.00 0.00 0.00 0.00 0.01 0.03 0.02 0.03 0.06 0.06 0.07 0.08 0.07 0.05 0.03 0.03 0.03 0.04 0.06 0.06 0.09 0.11 0.13 0.12 0.10 0.10 0.10 0.10 0.08 0.06 0.06 0.08 0.10 0.10 0.08 0.08 0.10 0.10 0.09 0.09
0.00 0.00 0.00 0.00 0.00 0.00 0.01 0.01 0.03 0.03 0.04 0.05 0.05 0.05 0.05 0.05 0.05 0.02 0.02 0.03 0.03 0.05 0.06 0.07 0.08 0.08 0.10 0.10 0.09 0.09 0.10 0.11 0.09 0.07 0.05 0.06 0.07 0.07 0.07 0.09 0.11 0.10 0.09
MSLP
1015.95 1015.46 1014.92 1014.42 1014.02 1013.73 1013.54 1013.40 1013.28 1013.10 1012.84 1012.50 1012.10 1011.67 1011.25 1010.88 1010.58 1010.35 1010.19 1010.05 1009.93 1009.81 1009.69 1009.57 1009.48 1009.43 1009.45 1009.53 1009.69 1009.89 1010.14 1010.39 1010.65 1010.88 1011.10 1011.28 1011.45 1011.60 1011.75 1011.89 1012.05 1012.22 1012.40
1016.04 1015.54 1015.02 1014.56 1014.21 1013.99 1013.87 1013.80 1013.73 1013.59 1013.37 1013.05 1012.66 1012.24 1011.83 1011.47 1011.16 1010.91 1010.70 1010.52 1010.33 1010.14 1009.93 1009.74 1009.57 1009.45 1009.39 1009.41 1009.51 1009.66 1009.87 1010.10 1010.34 1010.58 1010.82 1011.03 1011.24 1011.43 1011.61 1011.78 1011.96 1012.14 1012.33
1016.08 1015.58 1015.08 1014.67 1014.37 1014.21 1014.14 1014.12 1014.09 1013.99 1013.80 1013.52 1013.17 1012.79 1012.41 1012.06 1011.76 1011.49 1011.24 1011.00 1010.75 1010.48 1010.20 1009.94 1009.70 1009.51 1009.39 1009.35 1009.38 1009.48 1009.63 1009.81 1010.03 1010.26 1010.51 1010.75 1010.99 1011.22 1011.44 1011.65 1011.85 1012.05 1012.25
1016.11 1015.63 1015.17 1014.80 1014.55 1014.43 1014.39 1014.38 1014.36 1014.27 1014.11 1013.86 1013.56 1013.23 1012.90 1012.59 1012.30 1012.02 1011.74 1011.45 1011.14 1010.80 1010.47 1010.14 1009.86 1009.62 1009.45 1009.36 1009.33 1009.36 1009.44 1009.57 1009.75 1009.95 1010.19 1010.45 1010.71 1010.98 1011.24 1011.49 1011.73 1011.95 1012.17
1016.19 1015.74 1015.32 1015.00 1014.78 1014.67 1014.63 1014.60 1014.55 1014.45 1014.29 1014.06 1013.80 1013.52 1013.24 1012.97 1012.71 1012.43 1012.13 1011.81 1011.45 1011.08 1010.70 1010.35 1010.03 1009.77 1009.57 1009.43 1009.35 1009.32 1009.33 1009.40 1009.51 1009.68 1009.89 1010.14 1010.42 1010.72 1011.02 1011.30 1011.58 1011.83 1012.06
1016.33 1015.93 1015.57 1015.29 1015.09 1014.97 1014.88 1014.80 1014.69 1014.54 1014.34 1014.12 1013.88 1013.64 1013.41 1013.19 1012.95 1012.69 1012.39 1012.05 1011.67 1011.27 1010.89 1010.53 1010.21 1009.95 1009.73 1009.57 1009.44 1009.35 1009.30 1009.29 1009.33 1009.43 1009.60 1009.83 1010.11 1010.41 1010.74 1011.06 1011.36 1011.65 1011.91
1016.54 1016.20 1015.90 1015.66 1015.47 1015.31 1015.16 1014.99 1014.79 1014.56 1014.30 1014.05 1013.82 1013.61 1013.42 1013.24 1013.04 1012.80 1012.51 1012.17 1011.78 1011.39 1011.01 1010.67 1010.37 1010.12 1009.91 1009.74 1009.58 1009.44 1009.32 1009.23 1009.19 1009.22 1009.33 1009.51 1009.76 1010.06 1010.39 1010.73 1011.06 1011.38 1011.67
1016.81 1016.53 1016.28 1016.07 1015.88 1015.68 1015.45 1015.18 1014.87 1014.53 1014.20 1013.90 1013.66 1013.46 1013.31 1013.16 1012.99 1012.78 1012.50 1012.17 1011.80 1011.43 1011.07 1010.76 1010.49 1010.27 1010.08 1009.91 1009.73 1009.54 1009.36 1009.19 1009.07 1009.01 1009.04 1009.16 1009.36 1009.62 1009.94 1010.28 1010.63 1010.97 1011.30
1017.09 1016.86 1016.66 1016.47 1016.27 1016.03 1015.72 1015.35 1014.92 1014.49 1014.08 1013.73 1013.46 1013.27 1013.12 1013.00 1012.85 1012.66 1012.39 1012.08 1011.73 1011.38 1011.06 1010.78 1010.55 1010.37 1010.20 1010.03 1009.84 1009.62 1009.38 1009.15 1008.95 1008.80 1008.75 1008.78 1008.91 1009.11 1009.38 1009.70 1010.05 1010.41 1010.77
1017.36 1017.16 1016.98 1016.80 1016.59 1016.30 1015.92 1015.47 1014.96 1014.44 1013.97 1013.57 1013.27 1013.06 1012.92 1012.80 1012.66 1012.47 1012.21 1011.91 1011.58 1011.25 1010.96 1010.73 1010.54 1010.39 1010.25 1010.09 1009.89 1009.65 1009.37 1009.08 1008.80 1008.58 1008.43 1008.38 1008.42 1008.54 1008.75 1009.02 1009.34 1009.71 1010.10
1017.58 1017.38 1017.21 1017.03 1016.79 1016.46 1016.04 1015.52 1014.95 1014.38 1013.85 1013.42 1013.10 1012.87 1012.71 1012.58 1012.42 1012.23 1011.97 1011.67 1011.35 1011.05 1010.79 1010.59 1010.44 1010.32 1010.20 1010.06 1009.86 1009.61 1009.30 1008.97 1008.64 1008.35 1008.12 1007.97 1007.92 1007.95 1008.07 1008.28 1008.56 1008.91 1009.31
1017.75 1017.53 1017.33 1017.12 1016.85 1016.49 1016.02 1015.47 1014.87 1014.27 1013.72 1013.27 1012.92 1012.67 1012.49 1012.32 1012.14 1011.92 1011.65 1011.34 1011.03 1010.74 1010.51 1010.34 1010.22 1010.14 1010.05 1009.92 1009.73 1009.48 1009.16 1008.81 1008.45 1008.11 1007.81 1007.59 1007.44 1007.39 1007.42 1007.54 1007.76 1008.07 1008.46
1017.87 1017.60 1017.35 1017.09 1016.77 1016.37 1015.88 1015.31 1014.69 1014.09 1013.54 1013.07 1012.71 1012.43 1012.21 1012.00 1011.78 1011.52 1011.22 1010.91 1010.60 1010.33 1010.12 1009.98 1009.89 1009.84 1009.77 1009.66 1009.49 1009.25 1008.94 1008.59 1008.22 1007.86 1007.53 1007.24 1007.03 1006.88 1006.83 1006.86 1007.00 1007.26 1007.63
1017.96 1017.61 1017.28 1016.95 1016.56 1016.11 1015.59 1015.01 1014.39 1013.79 1013.25 1012.78 1012.40 1012.10 1011.83 1011.58 1011.30 1011.00 1010.68 1010.35 1010.05 1009.80 1009.61 1009.50 1009.45 1009.42 1009.37 1009.29 1009.14 1008.92 1008.64 1008.31 1007.95 1007.59 1007.25 1006.94 1006.67 1006.46 1006.33 1006.28 1006.35 1006.54 1006.85
1018.02 1017.57 1017.14 1016.71 1016.25 1015.74 1015.18 1014.58 1013.97 1013.37 1012.83 1012.36 1011.96 1011.62 1011.31 1011.00 1010.68 1010.35 1010.00 1009.66 1009.37 1009.14 1008.99 1008.92 1008.89 1008.89 1008.87 1008.81 1008.69 1008.50 1008.24 1007.94 1007.62 1007.28 1006.95 1006.64 1006.35 1006.10 1005.91 1005.80 1005.79 1005.91 1006.16
1018.03 1017.48 1016.94 1016.40 1015.85 1015.26 1014.65 1014.03 1013.41 1012.81 1012.27 1011.79 1011.37 1010.99 1010.63 1010.27 1009.91 1009.54 1009.18 1008.85 1008.58 1008.39 1008.28 1008.23 1008.24 1008.26 1008.27 1008.23 1008.13 1007.97 1007.75 1007.48 1007.20 1006.90 1006.60 1006.31 1006.02 1005.77 1005.55 1005.39 1005.32 1005.37 1005.54
1017.98 1017.32 1016.67 1016.03 1015.38 1014.72 1014.05 1013.39 1012.75 1012.14 1011.59 1011.08 1010.63 1010.20 1009.80 1009.40 1009.01 1008.62 1008.26 1007.95 1007.72 1007.56 1007.49 1007.49 1007.53 1007.58 1007.60 1007.58 1007.50 1007.36 1007.16 1006.93 1006.69 1006.43 1006.16 1005.90 1005.64 1005.39 1005.16 1004.97 1004.86 1004.85 1004.96
1017.82 1017.08 1016.33 1015.59 1014.85 1014.12 1013.40 1012.70 1012.03 1011.40 1010.81 1010.28 1009.78 1009.32 1008.87 1008.44 1008.02 1007.63 1007.29 1007.01 1006.81 1006.70 1006.67 1006.71 1006.78 1006.85 1006.90 1006.89 1006.82 1006.69 1006.52 1006.31 1006.09 1005.86 1005.63 1005.40 1005.16 1004.93 1004.70 1004.50 1004.37 1004.31 1004.36
1017.54 1016.72 1015.91 1015.09 1014.29 1013.50 1012.73 1011.99 1011.29 1010.62 1010.00 1009.42 1008.88 1008.37 1007.89 1007.43 1007.01 1006.62 1006.30 1006.05 1005.90 1005.83 1005.85 1005.92 1006.02 1006.12 1006.18 1006.18 1006.12 1006.01 1005.85 1005.66 1005.45 1005.24 1005.02 1004.80 1004.58 1004.36 1004.14 1003.94 1003.79 1003.71 1003.72
1017.14 1016.28 1015.41 1014.55 1013.71 1012.88 1012.08 1011.31 1010.56 1009.85 1009.19 1008.56 1007.97 1007.42 1006.90 1006.43 1006.00 1005.62 1005.32 1005.11 1005.00 1004.97 1005.02 1005.13 1005.26 1005.37 1005.45 1005.48 1005.44 1005.34 1005.19 1005.01 1004.80 1004.59 1004.37 1004.15 1003.93 1003.70 1003.49 1003.29 1003.14 1003.04 1003.03
1016.67 1015.77 1014.88 1014.00 1013.14 1012.30 1011.47 1010.67 1009.89 1009.14 1008.42 1007.74 1007.09 1006.50 1005.95 1005.45 1005.02 1004.65 1004.38 1004.20 1004.11 1004.12 1004.19 1004.32 1004.47 1004.61 1004.72 1004.78 1004.77 1004.69 1004.57 1004.40 1004.20 1003.98 1003.74 1003.50 1003.26 1003.02 1002.79 1002.59 1002.43 1002.33 1002.31
1016.17 1015.25 1014.35 1013.47 1012.61 1011.76 1010.93 1010.10 1009.28 1008.48 1007.70 1006.96 1006.26 1005.61 1005.03 1004.51 1004.08 1003.72 1003.46 1003.29 1003.23 1003.24 1003.33 1003.48 1003.64 1003.81 1003.96 1004.06 1004.10 1004.08 1003.99 1003.85 1003.67 1003.44 1003.19 1002.92 1002.64 1002.37 1002.12 1001.90 1001.73 1001.63 1001.61
1015.71 1014.78 1013.88 1013.00 1012.15 1011.30 1010.45 1009.60 1008.74 1007.88 1007.04 1006.23 1005.47 1004.77 1004.15 1003.61 1003.16 1002.81 1002.55 1002.39 1002.32 1002.33 1002.41 1002.56 1002.73 1002.93 1003.12 1003.28 1003.40 1003.45 1003.44 1003.36 1003.21 1003.00 1002.75 1002.45 1002.14 1001.83 1001.54 1001.30 1001.11 1001.00 1000.98
1015.36 1014.41 1013.50 1012.63 1011.78 1010.92 1010.06 1009.16 1008.25 1007.33 1006.41 1005.53 1004.70 1003.96 1003.30 1002.73 1002.27 1001.91 1001.64 1001.46 1001.37 1001.36 1001.42 1001.54 1001.72 1001.94 1002.17 1002.40 1002.61 1002.77 1002.87 1002.88 1002.81 1002.65 1002.41 1002.12 1001.78 1001.44 1001.12 1000.84 1000.63 1000.50 1000.45
1015.15 1014.18 1013.25 1012.36 1011.49 1010.61 1009.71 1008.77 1007.79 1006.80 1005.81 1004.85 1003.97 1003.17 1002.47 1001.89 1001.41 1001.03 1000.75 1000.54 1000.41 1000.35 1000.36 1000.44 1000.60 1000.82 1001.10 1001.40 1001.71 1001.99 1002.22 1002.36 1002.40 1002.33 1002.15 1001.89 1001.56 1001.21 1000.86 1000.54 1000.30 1000.13 1000.05
1015.07 1014.06 1013.10 1012.18 1011.27 1010.35 1009.40 1008.39 1007.35 1006.28 1005.21 1004.19 1003.25 1002.41 1001.69 1001.09 1000.60 1000.20 999.89 999.65 999.46 999.34 999.28 999.30 999.42 999.62 999.92 1000.28 1000.69 1001.09 1001.46 1001.75 1001.93 1001.98 1001.91 1001.71 1001.43 1001.09 1000.73 1000.39 1000.11 999.89 999.76
Thickness
5719 5723 5727 5729 5731 5733 5734 5736 5738 5739 5741 5742 5743 5745 5746 5747 5748 5748 5748 5748 5748 5748 5749 5749 5749 5748 5748 5747 5746 5745 5745 5744 5743 5742 5741 5740 5739 5738 5737 5736 5734 5733 5732
5717 5720 5722 5725 5726 5728 5729 5731 5732 5734 5735 5737 5738 5740 5741 5742 5743 5744 5744 5744 5744 5744 5745 5745 5745 5744 5744 5744 5743 5742 5742 5741 5740 5739 5738 5737 5736 5735 5734 5732 5731 5730 5729
5714 5716 5718 5720 5721 5723 5724 5725 5727 5728 5730 5732 5733 5734 5736 5737 5738 5739 5740 5740 5740 5740 5740 5741 5741 5740 5740 5740 5739 5739 5738 5737 5736 5735 5734 5733 5732 5732 5731 5729 5728 5727 5726
5709 5711 5713 5714 5716 5717 5718 5720 5721 5723 5724 5726 5727 5729 5730 5731 5732 5734 5734 5735 5735 5735 5736 5736 5736 5736 5736 5736 5735 5735 5734 5733 5732 5731 5730 5729 5729 5728 5727 5726 5725 5724 5723
5704 5706 5707 5709 5710 5711 5713 5714 5715 5717 5718 5720 5721 5722 5724 5725 5726 5728 5729 5729 5730 5730 5731 5731 5731 5731 5731 5731 5731 5730 5730 5729 5728 5727 5727 5726 5725 5725 5724 5723 5722 5721 5719
5698 5700 5702 5703 5705 5706 5707 5708 5709 5710 5712 5713 5715 5716 5717 5719 5720 5722 5723 5724 5724 5725 5726 5726 5726 5726 5726 5727 5727 5726 5726 5725 5724 5723 5723 5722 5721 5721 5720 5719 5718 5717 5716
5692 5694 5696 5697 5698 5699 5700 5702 5703 5704 5705 5707 5708 5709 5711 5712 5714 5715 5716 5718 5719 5720 5720 5721 5721 5721 5721 5721 5721 5721 5721 5720 5719 5719 5718 5718 5717 5717 5717 5716 5715 5714 5712
5687 5688 5689 5690 5691 5692 5694 5695 5696 5697 5698 5700 5701 5702 5704 5705 5707 5708 5709 5711 5712 5713 5714 5714 5715 5715 5715 5716 5716 5716 5716 5715 5714 5714 5713 5713 5713 5713 5713 5712 5711 5710 5709
5680 5681 5682 5683 5684 5685 5686 5687 5688 5690 5691 5692 5693 5695 5696 5697 5699 5700 5702 5703 5704 5706 5707 5707 5708 5709 5709 5709 5709 5709 5709 5709 5708 5708 5708 5708 5708 5708 5708 5708 5707 5706 5705
5673 5674 5675 5676 5677 5678 5679 5680 5681 5682 5683 5684 5685 5686 5688 5689 5690 5692 5694 5695 5696 5698 5699 5700 5701 5701 5702 5702 5702 5702 5702 5703 5703 5703 5702 5703 5703 5704 5704 5703 5703 5702 5701
5665 5666 5668 5669 5670 5670 5671 5672 5673 5674 5675 5675 5676 5677 5679 5680 5682 5684 5685 5687 5688 5690 5691 5692 5693 5694 5694 5695 5695 5695 5695 5695 5696 5696 5697 5697 5698 5699 5699 5698 5698 5697 5696
5658 5659 5660 5662 5662 5663 5664 5664 5665 5665 5666 5667 5668 5669 5670 5671 5673 5675 5677 5678 5680 5681 5683 5684 5685 5685 5686 5686 5687 5687 5687 5688 5689 5690 5690 5691 5692 5693 5694 5693 5693 5692 5692
5652 5653 5653 5654 5655 5656 5656 5657 5657 5657 5658 5659 5660 5661 5661 5663 5664 5666 5668 5670 5671 5672 5673 5674 5675 5676 5676 5677 5678 5679 5679 5680 5681 5682 5684 5685 5686 5687 5688 5688 5687 5687 5687
5645 5646 5647 5647 5648 5648 5648 5649 5649 5649 5650 5650 5651 5652 5653 5653 5654 5656 5658 5660 5661 5662 5663 5665 5666 5667 5667 5668 5669 5670 5671 5672 5673 5674 5676 5678 5679 5680 5681 5682 5682 5681 5681
5640 5640 5640 5640 5640 5640 5640 5640 5640 5641 5641 5641 5642 5643 5643 5644 5645 5646 5648 5650 5651 5653 5653 5655 5656 5657 5658 5659 5660 5661 5662 5663 5664 5666 5668 5670 5671 5673 5674 5675 5676 5675 5675
5635 5634 5634 5634 5633 5633 5632 5632 5632 5632 5632 5632 5633 5633 5634 5635 5635 5636 5638 5639 5641 5643 5643 5644 5646 5647 5647 5649 5650 5651 5652 5654 5655 5657 5658 5660 5662 5664 5666 5668 5669 5669 5669
5629 5628 5627 5627 5626 5625 5624 5624 5624 5623 5623 5623 5623 5624 5624 5625 5625 5626 5627 5629 5630 5632 5633 5634 5635 5636 5637 5638 5639 5641 5643 5644 5645 5647 5648 5650 5652 5654 5656 5658 5660 5661 5662
5622 5621 5620 5620 5619 5617 5616 5616 5615 5615 5614 5614 5614 5614 5614 5614 5615 5615 5616 5617 5619 5621 5622 5622 5623 5624 5625 5626 5628 5629 5631 5633 5635 5636 5638 5639 5641 5643 5646 5648 5650 5652 5654
5616 5614 5613 5612 5611 5609 5609 5608 5607 5606 5605 5605 5604 5604 5604 5604 5604 5604 5605 5606 5607 5608 5609 5610 5611 5611 5612 5613 5615 5618 5619 5621 5623 5625 5627 5629 5631 5633 5635 5637 5639 5642 5644
5608 5606 5605 5604 5602 5601 5600 5599 5598 5597 5596 5595 5594 5593 5593 5594 5593 5593 5594 5595 5595 5596 5596 5597 5598 5598 5599 5599 5602 5605 5607 5609 5611 5614 5616 5618 5619 5622 5624 5626 5628 5630 5632
5600 5598 5596 5595 5595 5593 5592 5590 5589 5588 5586 5585 5584 5583 5582 5582 5583 5583 5583 5583 5583 5583 5584 5584 5585 5584 5585 5585 5585 5589 5594 5597 5600 5603 5604 5606 5608 5610 5612 5614 5616 5618 5620
5594 5591 5590 5589 5588 5586 5585 5583 5581 5579 5578 5577 5576 5575 5574 5572 5572 5573 5573 5572 5572 5572 5572 5572 5571 5571 5571 5570 5569 5570 5576 5583 5589 5592 5593 5594 5596 5597 5599 5601 5604 5606 5608
5587 5586 5586 5583 5581 5580 5578 5576 5573 5570 5569 5568 5568 5567 5566 5563 5563 5563 5563 5562 5562 5561 5561 5561 5559 5558 5558 5557 5555 5555 5557 5564 5571 5578 5580 5582 5584 5585 5587 5589 5591 5594 5595
5582 5580 5578 5576 5575 5573 5570 5568 5565 5562 5561 5561 5560 5558 5557 5555 5554 5554 5554 5553 5552 5551 5550 5549 5549 5547 5545 5544 5543 5544 5545 5547 5549 5558 5565 5568 5570 5573 5575 5577 5579 5582 5584
5576 5573 5571 5569 5567 5565 5563 5560 5557 5554 5553 5552 5551 5549 5548 5547 5546 5545 5544 5543 5542 5541 5540 5539 5538 5536 5535 5534 5533 5532 5532 5533 5534 5537 5547 5553 5555 5559 5562 5564 5566 5570 5572
5568 5565 5563 5561 5560 5558 5555 5552 5549 5547 5545 5543 5542 5541 5540 5539 5538 5537 5535 5533 5532 5531 5530 5529 5528 5527 5526 5524 5523 5522 5522 5522 5524 5523 5529 5536 5541 5546 5548 5552 5555 5558 5560